Regional Weather Roundup
Issued by NWS

Home | Current Version | Previous Version | Graphics & Text | Print | Product List | Glossary On
Versions: 1 2 3 4 5 6 7 8 9 10 11 12 13 14 15 16 17 18 19 20 21 22 23 24 25 26 27 28 29 30 31 32 33 34 35 36 37 38 39 40 41 42 43 44 45 46 47 48 49 50
000
ASUS43 KMPX 300210
RWRMN
WEATHER ROUNDUP FOR MINNESOTA
NATIONAL WEATHER SERVICE TWIN CITIES/CHANHASSEN MN
800 PM CST THU JAN 29 2015


NOTE: "FAIR" INDICATES FEW OR NO CLOUDS BELOW 12,000 FEET WITH NO
SIGNIFICANT WEATHER AND/OR OBSTRUCTIONS TO VISIBILITY. N/A MEANS
CURRENT SKY AND/OR WEATHER CONDITIONS ARE NOT AVAILABLE.

MNZ060>063-068>070-300300-
   Twin Cities Metro

CITY           SKY/WX    TMP DP  RH WIND       PRES   REMARKS
TWIN CITIES    PTCLDY    20   8  60 N13G28    30.48R WCI   7
ST PAUL        CLEAR     19   8  62 N14G23    30.50R WCI   6
CRYSTAL        CLEAR     20   8  60 N10       30.48R WCI   9
BLAINE         CLEAR     19   9  63 NW14      30.48R WCI   6
LAKEVILLE      CLEAR     19   9  63 NW15G23   30.45R WCI   5
EDEN PRAIRIE   CLEAR     20   6  55 N14G20    30.46R WCI   7
SOUTH ST PAUL  CLEAR     20  10  64 N10G17    30.47R WCI   9
LAKE ELMO      FAIR      19  10  68 NW13G18   30.48R WCI   7
$$
MNZ001>005-007-008-013>017-022>024-027-028-300300-
   Northwest Minnesota

CITY           SKY/WX    TMP DP  RH WIND       PRES   REMARKS
BEMIDJI        PTCLDY     2  -2  81 NW7       30.48S WCI -10
HALLOCK        PTCLDY     1  -2  85 CALM      30.57R
ROSEAU         MOCLDY     1  -6  71 NW7       30.53S WCI -11
WARROAD        MOCLDY     0  -6  78 NW6       30.52S WCI -12
THIEF RVR FALL PTCLDY     1  -2  85 NW5       30.53S WCI  -8
CROOKSTON      MOCLDY     5   1  85 N9        30.59R WCI  -9
FOSSTON        PTCLDY     0  -2  92 NW7       30.52S WCI -13
DETROIT LAKES  PTCLDY     7   3  85 N9        30.51S WCI  -7
MOORHEAD       CLEAR      9   7  92 N10       30.57S WCI  -6
PARK RAPIDS    CLOUDY     7   2  80 NW9       30.47S WCI  -7
MAHNOMEN       FAIR       4   0  83 N3        30.53R
$$
MNZ006-009>011-018-025>026-300300-
   North Central Minnesota

CITY           SKY/WX    TMP DP  RH WIND       PRES   REMARKS
BAUDETTE       PTCLDY     0  -5  79 NW8       30.48S WCI -14
FLAG ISLAND    PTCLDY     0  -6  78 NW10      30.51R WCI -17
INTL FALLS     CLEAR      0  -5  79 NW5       30.47R WCI -10
WASKISH        PTCLDY     3   0  85 CALM      30.50R
BIG FORK       CLEAR      3  -2  78 N5        30.47R WCI  -6
LONGVILLE      MOCLDY     9   1  72 NW7       30.47R WCI  -3
GRAND RAPIDS   CLOUDY     7   0  72 N10       30.43R WCI  -8
CRANE LAKE     CLOUDY     7   1  78 NW8       30.47R WCI  -6
ORR            CLOUDY     7  -2  66 NW10      30.42R WCI  -8
COOK           CLOUDY     7   1  78 NW8       30.44R WCI  -6
WALKER         FAIR       6   0  76 NW3       30.48S
$$
MNZ012-019>021-037-300300-
   Northeast Minnesota

CITY           SKY/WX    TMP DP  RH WIND       PRES   REMARKS
DULUTH         MOCLDY     9   0  67 NW13      30.40R WCI  -7
ELY            CLOUDY     9   1  72 N5        30.39R WCI   0
HIBBING        PTCLDY     7  -2  66 N15       30.43R WCI -10
EVELETH        PTCLDY    10   3  72 NW15G23   30.43R WCI  -6
DULUTH HARBOR  PTCLDY    14   3  62 NW14      30.49R WCI  -1
TWO HARBORS    LGT SNOW  12   7  79 NW5       30.40R WCI   4
SILVER BAY     CLEAR     12   1  62 NW5       30.39R WCI   4
GRAND MARAIS     N/A     11  -1  58 VRB6      30.43R WCI   1
G MARAIS ARPRT CLOUDY     3  -4  72 NW13G23   30.30R WCI -14
$$
MNZ029>031-032-039>041-046>048-054>057-064-300300-
   West Central Minnesota

CITY           SKY/WX    TMP DP  RH WIND       PRES   REMARKS
FERGUS FALLS   CLEAR      9   1  72 N5        30.57R WCI   0
WHEATON        CLOUDY    12   9  85 N6        30.57R WCI   3
MORRIS         CLEAR     14   9  79 N13       30.51F WCI   0
ALEXANDRIA     CLEAR     11   5  77 NW12      30.49R WCI  -3
ELBOW LAKE     FAIR      10   6  81 N12       30.52R WCI  -4
WADENA         CLEAR      7   3  85 NW9       30.48S WCI  -7
GLENWOOD       CLEAR     10   7  85 NW9       30.49S WCI  -2
APPLETON       CLOUDY    18  12  79 N10       30.54S WCI   6
BENSON         CLEAR     12   7  79 N6        30.53S WCI   3
ORTONVILLE     CLOUDY    18  12  79 N9        30.54R WCI   6
MADISON        CLOUDY    23  16  74 N10       30.54R WCI  12
WILLMAR        FAIR      16  10  79 NW13      30.51S WCI   2
$$
MNZ033>034-036-042>043-049>051-058-059-300300-
   Central Minnesota

CITY           SKY/WX    TMP DP  RH WIND       PRES   REMARKS
ST CLOUD       CLEAR     16   7  67 NW9       30.49R WCI   4
SAUK CENTRE    FAIR      12   6  77 NW12      30.50R WCI  -2
PAYNESVILLE    CLEAR     12   7  81 W12G17    30.50R WCI  -2
AITKIN         CLEAR     12   3  67 NW6       30.45R WCI   3
PINE RIVER     MOCLDY    10   3  72 NW8       30.50R WCI  -1
BRAINERD       PTCLDY    12   4  70 NW9       30.48R WCI   0
STAPLES        MOCLDY     9   3  78 N9        30.48S WCI  -5
LONG PRAIRIE   FAIR      10   5  79 NW8       30.49R WCI  -1
LITTLE FALLS   CLEAR     14   5  67 NW5       30.49R WCI   6
LITCHFIELD     CLEAR     16  12  86 NW12      30.50R WCI   3
BUFFALO        CLEAR     19   9  64 NW7       30.50R WCI  10
MAPLE LAKE     CLEAR     19  10  68 NW12      30.49R WCI   7
$$
MNZ037-044-045-052-053-300300-
   East Central Minnesota

CITY           SKY/WX    TMP DP  RH WIND       PRES   REMARKS
PRINCETON      CLEAR     18   7  62 NW10      30.48R WCI   6
MORA           CLEAR     14   5  67 N5        30.49R WCI   6
CAMBRIDGE      CLEAR     16   7  67 NW5       30.47R WCI   9
RUSH CITY      CLEAR     15   6  68 NW6       30.47R WCI   7
MOOSE LAKE     CLEAR     12   3  67 N6        30.44R WCI   3
HINCKLEY       FAIR      14   9  79 CALM      30.46R
CLOQUET        CLEAR      9   0  66 NW7       30.43R WCI  -3
MCGREGOR       CLEAR     12   5  73 NW5       30.46R WCI   4
$$
MNZ071>073-080-081-089-090-097-098-300300-
   Southwest Minnesota

CITY           SKY/WX    TMP DP  RH WIND       PRES   REMARKS
MONTEVIDEO     FLURRIES  16  12  86 N12       30.55R WCI   3
GRANITE FALLS  PTCLDY    17  12  82 NW10      30.55R WCI   4
CANBY          CLOUDY    21  15  77 N13G18    30.55R WCI   8
MARSHALL       CLOUDY    19  10  68 N16       30.53R WCI   5
REDWOOD FALLS  CLEAR     18  10  71 NW9G21    30.52R WCI   7
OLIVIA         CLEAR     16  12  86 NW12      30.51S WCI   3
PIPESTONE      MOCLDY    21  18  86 N7        30.49R WCI  13
WINDOM         CLEAR     18  14  86 NW17G25   30.49R WCI   2
WORTHINGTON    MOCLDY    19  14  79 N12       30.49S WCI   7
JACKSON        CLEAR     21  16  79 NW14      30.49R WCI   8
TRACY          CLOUDY    20  15  81 N16       30.52R WCI   6
SLAYTON        CLOUDY    20  15  81 N16       30.49S WCI   6
$$
MNZ065>067-074>077-082>085-091>093-300300-
   South Central Minnesota

CITY           SKY/WX    TMP DP  RH WIND       PRES   REMARKS
MANKATO        CLEAR     19  12  73 NW21G26   30.47R WCI   3
NEW ULM        CLEAR     18  10  73 NW18G24   30.50R WCI   2
ST JAMES       CLEAR     19  14  79 NW15      30.51R WCI   5
FAIRMONT       CLEAR     19   9  63 NW17G25   30.47R WCI   4
GLENCOE        CLEAR     20  13  76 NW14      30.48R WCI   7
FARIBAULT      CLEAR     21  16  79 NW9G18    30.44R WCI  11
OWATONNA       CLEAR     21  14  73 NW16      30.43R WCI   7
WASECA         CLEAR     21  14  73 NW14G20   30.47R WCI   8
ALBERT LEA     PTCLDY    21  16  79 NW9G18    30.43R WCI  11
$$
MNZ078>079-086>088-094>096-300300-
   Southeast Minnesota

CITY           SKY/WX    TMP DP  RH WIND       PRES   REMARKS
ROCHESTER      CLOUDY    23  15  71 N22       30.38R WCI   8
RED WING       CLEAR     21   9  58 N14G22    30.44R WCI   8
STANTON        PTCLDY    23  14  68 NW14G21   30.43R WCI  11
DODGE CENTER   PTCLDY    21  16  79 N16G26    30.40R WCI   7
WINONA         MOCLDY    28  18  64 NW15G24   30.41R WCI  17
AUSTIN         CLOUDY    23  16  74 NW17G25   30.41R WCI   9
PRESTON        MOCLDY    23  14  69 N21G29    30.37R WCI   8
$$
ABBREVIATIONS USED IN REMARKS
   TC - TEMPERATURES IN CELSIUS
  WCI - WIND CHILL INDEX
   HX - HEAT INDEX
  VSB - VISIBILITY
$$


USA.gov is the U.S. government's official web portal to all federal, state and local government web resources and services.